Location: Unspecified
(0.0000°N, 0.0000°E)
Time: 14:28:44
(UTC+00:00)

Courier 1B - Pass Details

Date: 18 February 2026
Orbit: 962 x 1208 km, 28.3° (Epoch: 16 March)

Event Time Altitude Azimuth Distance (km) Brightness Sun altitude
Exits shadow 05:23:07 14° 263° (W) 2,752 9.3 -12.4°
Maximum altitude 05:28:28 30° 209° (SSW) 1,860 8.8 -11.1°
Drops below altitude 10° 05:34:31 10° 150° (SSE) 2,873 10.6 -9.7°
Sets 05:37:33 0° 139° (SE) 3,787 11.5 -8.9°
